User: anonymous   Login
Location: Unspecified
(0.0000°N, 0.0000°E)
Time: 03:33:51
(UTC+00:00)
Language:

USA 264 - Orbit

View from above orbital plane
View from above orbital plane
View from above satellite
View from above satellite

Ground track
Ground track

The orbit data is extracted from the following two-line orbital elements,

1 40964U 15058A   17176.93568290 0.00000000  00000-0  00000-0 0    09
2 40964  63.4367 138.5142 0073000 176.0706 183.9294 13.40735728    01
Epoch (UTC): 25 June 2017 22:27:23
Eccentricity: 0.0073000
inclination: 63.4367°
perigee height: 1052 km
apogee height: 1161 km
right ascension of ascending node: 138.5142°
argument of perigee: 176.0706°
revolutions per day: 13.40735728
mean anomaly at epoch: 183.9294°
orbit number at epoch: 0

The dashed part of the orbit path shows where the satellite is in the earth's shadow,  

DLR